sat.trackr.live / text

‹ back to catalog

STARLINK-3138

NORAD 49430 · 2021-104Y

PAYLOAD ACTIVE UNKNOWN

§ Identity

Operator
Country
US
Launch date
2021-11-13
Launch site
AFETR
Launch vehicle
Mass (kg)
RCS (m²)

Purposes: comms

External: N2YO · Heavens-Above · Gunter

§ Orbital elements

Epoch: 2026-09-13T20:14:17.742624Z

Period
93.85 min
Inclination
53.1594°
Eccentricity
0.0001181
Mean motion
15.34381458 rev/d
Perigee alt
462.0 km
Apogee alt
463.6 km
Semi-major
6,840.9 km
B*
-1.8839e-5
RAAN
92.4831°
Arg perigee
86.4531°
Mean anomaly
273.6606°
Rev number
26,720

§ Raw data

STARLINK-31381 49430U 21104Y   26256.84326091 -.00001012  00000+0 -18839-4 0  99902 49430  53.1594  92.4831 0001181  86.4531 273.6606 15.34381458267203

JSON: /api/v1/satellites/49430 · /tle

For live sub-satellite position, see the globe view (requires WebGL).

§ Visibility from observer

Set your observer location to see the next 7 days of passes ≥ 10°. The values pass through the URL so the page stays shareable.

No JS? Fill the form by hand. The geolocation button needs JavaScript.